User: anonymous   Login
Location: Eaton Estates
(41.3089°N, 82.0057°W)
Time: 07:11:46
(UTC+00:00)
Language:

METEOR M2 - Orbit

View from above orbital plane
View from above orbital plane
View from above satellite
View from above satellite

Ground track
Ground track

The orbit data is extracted from the following two-line orbital elements,

1 40069U 14037A   24106.92440793  .00000320  00000-0  16699-3 0  9994
2 40069  98.4363 103.9501 0005867 167.5465 192.5859 14.20928593506781
Epoch (UTC): 15 April 2024 22:11:08
Eccentricity: 0.0005867
inclination: 98.4363°
perigee height: 818 km
apogee height: 826 km
right ascension of ascending node: 103.9501°
argument of perigee: 167.5465°
revolutions per day: 14.20928593
mean anomaly at epoch: 192.5859°
orbit number at epoch: 50678

The dashed part of the orbit path shows where the satellite is in the earth's shadow,  

DLR